Terminal Aerodrome Forecast
Issued by NWS

Home | Current Version | Previous Version | Graphics & Text | Print | Product List | Glossary On
Versions: 1 2 3 4 5 6 7 8 9 10 11 12 13 14 15 16 17 18 19 20 21 22
000
FTUS43 KABR 301700
TAFATY
TAF
KATY 301724Z 3018/0118 17013G21KT P6SM SCT150
     FM010100 18011KT P6SM SCT250
     FM010900 31008KT P6SM OVC060
      TEMPO 0110/0114 -RA OVC015
     FM011500 36008KT P6SM SKC=

USA.gov is the U.S. government's official web portal to all federal, state and local government web resources and services.